Location: Boiro
(42.6475°N, 8.8834°W)
Time: 02:56:03
(UTC+01:00)

Vanguard 3 - Pass Details

Date: 08 December 2021
Orbit: 508 x 3260 km, 33.3° (Epoch: 19 January)

Event Time Altitude Azimuth Distance (km) Brightness Sun altitude
Exits shadow 06:56:04 20° 258° (WSW) 5,401 10.8 -20.8°
Maximum altitude 07:11:35 62° 188° (S) 3,254 10.1 -18.0°
Drops below altitude 10° 07:26:13 10° 112° (ESE) 4,786 12.4 -15.4°
Sets 07:29:21 0° 109° (ESE) 5,480 13.3 -14.8°
